When you browse on this site, cookies collect data to enhance your experience and personalize the content and advertising you see.
Visit our Privacy Policy to learn more. By continuing to use the site, you agree to this use of cookies and data.
  • In Romania
  • List of Countries
  • For 7 days
  • Water Temperature
  • Satellite Maps
  • Weather Map
  • Weather Widgets
  • user-avatar
    Login

    Hourly Weather Molodenki

    Today, 27 March, Wednesday

    Time Temperature Precipitation Wind Pressure Humidity
    00:00 -4°C° 0 mm 2 mps 739 mmHg 93%
    01:00 -5°C° 0 mm 2 mps 740 mmHg 91%
    02:00 -6°C° 0 mm 2 mps 740 mmHg 90%
    03:00 -6°C° 0 mm 2 mps 740 mmHg 89%
    04:00 -7°C° 0 mm 2 mps 740 mmHg 88%
    05:00 -7°C° 0 mm 2 mps 740 mmHg 87%
    06:00 -7°C° 0 mm 2 mps 740 mmHg 87%
    07:00 -6°C° 0 mm 2 mps 741 mmHg 87%
    08:00 -3°C° 0 mm 1 mps 741 mmHg 87%
    09:00 -3°C° 0 mm 1 mps 742 mmHg 87%
    10:00 -2°C° 0 mm 1 mps 742 mmHg 88%
    11:00 -1°C° 0 mm 1 mps 743 mmHg 90%
    12:00 0°C° 0 mm 1 mps 743 mmHg 91%
    13:00 +1°C° 0 mm 1 mps 743 mmHg 94%
    14:00 +1°C° 0 mm 1 mps 743 mmHg 97%
    15:00 -1°C° 0 mm 2 mps 744 mmHg 99%
    16:00 -2°C° 0 mm 2 mps 744 mmHg 96%
    17:00 -2°C° 0 mm 2 mps 744 mmHg 93%
    18:00 -3°C° 0 mm 2 mps 744 mmHg 91%
    19:00 -4°C° 0 mm 2 mps 744 mmHg 89%
    20:00 -5°C° 0 mm 2 mps 745 mmHg 88%
    21:00 -6°C° 0 mm 2 mps 745 mmHg 86%
    22:00 -6°C° 0 mm 2 mps 745 mmHg 87%
    23:00 -7°C° 0 mm 3 mps 745 mmHg 87%

    Tomorrow, 28 March, Thursday

    Time Temperature Precipitation Wind Pressure Humidity
    00:00 -8°C° 0 mm 3 mps 745 mmHg 87%
    01:00 -8°C° 0 mm 3 mps 745 mmHg 89%
    02:00 -8°C° 0 mm 3 mps 746 mmHg 90%
    03:00 -9°C° 0 mm 3 mps 746 mmHg 92%
    04:00 -8°C° 0 mm 3 mps 746 mmHg 93%
    05:00 -8°C° 0 mm 3 mps 746 mmHg 94%
    06:00 -8°C° 0 mm 3 mps 746 mmHg 95%
    07:00 -8°C° 0 mm 4 mps 747 mmHg 95%
    08:00 -7°C° 0 mm 4 mps 747 mmHg 94%
    09:00 -5°C° 0 mm 4 mps 747 mmHg 93%
    10:00 -5°C° 0.1 mm 5 mps 747 mmHg 91%
    11:00 -4°C° 0.1 mm 5 mps 748 mmHg 89%
    12:00 -2°C° 0.1 mm 5 mps 748 mmHg 87%
    13:00 -2°C° 0.1 mm 5 mps 748 mmHg 87%
    14:00 -2°C° 0.1 mm 5 mps 748 mmHg 87%
    15:00 -2°C° 0.1 mm 5 mps 748 mmHg 87%
    16:00 -2°C° 0 mm 5 mps 748 mmHg 88%
    17:00 -3°C° 0 mm 4 mps 748 mmHg 88%
    18:00 -4°C° 0 mm 4 mps 749 mmHg 89%
    19:00 -5°C° 0 mm 4 mps 749 mmHg 89%
    20:00 -7°C° 0 mm 4 mps 749 mmHg 90%
    21:00 -7°C° 0 mm 3 mps 750 mmHg 90%
    22:00 -7°C° 0 mm 3 mps 750 mmHg 89%
    23:00 -8°C° 0 mm 3 mps 750 mmHg 89%

    Day after tomorrow, 29 March, Friday

    Time Temperature Precipitation Wind Pressure Humidity
    00:00 -7°C° 0 mm 2 mps 750 mmHg 88%
    01:00 -7°C° 0 mm 2 mps 750 mmHg 88%
    02:00 -7°C° 0 mm 2 mps 750 mmHg 89%
    03:00 -7°C° 0 mm 2 mps 750 mmHg 89%
    04:00 -7°C° 0 mm 2 mps 749 mmHg 88%
    05:00 -7°C° 0 mm 2 mps 749 mmHg 87%
    06:00 -8°C° 0 mm 2 mps 749 mmHg 86%
    07:00 -7°C° 0 mm 3 mps 749 mmHg 86%
    08:00 -6°C° 0 mm 3 mps 749 mmHg 86%
    09:00 -5°C° 0 mm 3 mps 749 mmHg 86%
    10:00 -4°C° 0 mm 3 mps 749 mmHg 91%
    11:00 -2°C° 0 mm 3 mps 748 mmHg 95%
    12:00 -1°C° 0 mm 3 mps 748 mmHg 99%
    13:00 -1°C° 0.1 mm 3 mps 748 mmHg 99%
    14:00 -1°C° 0.1 mm 3 mps 747 mmHg 99%
    15:00 0°C° 0.1 mm 3 mps 747 mmHg 99%
    16:00 0°C° 0 mm 3 mps 747 mmHg 99%
    17:00 0°C° 0 mm 3 mps 746 mmHg 99%
    18:00 +1°C° 0 mm 2 mps 746 mmHg 99%
    19:00 -1°C° 0 mm 2 mps 746 mmHg 98%
    20:00 -1°C° 0 mm 2 mps 746 mmHg 98%
    21:00 -1°C° 0 mm 2 mps 746 mmHg 98%
    22:00 -1°C° 0 mm 2 mps 746 mmHg 97%
    23:00 -1°C° 0 mm 2 mps 745 mmHg 96%

    30 March, Saturday

    Time Temperature Precipitation Wind Pressure Humidity
    00:00 -1°C° 0 mm 2 mps 745 mmHg 96%
    01:00 -2°C° 0 mm 3 mps 745 mmHg 94%
    02:00 -2°C° 0 mm 3 mps 744 mmHg 93%
    03:00 -2°C° 0 mm 3 mps 744 mmHg 92%
    04:00 -2°C° 0 mm 3 mps 744 mmHg 93%
    05:00 -2°C° 0 mm 3 mps 743 mmHg 93%
    06:00 -2°C° 0 mm 3 mps 743 mmHg 93%
    07:00 -1°C° 0 mm 3 mps 743 mmHg 95%
    08:00 -2°C° 0 mm 4 mps 743 mmHg 97%
    09:00 -1°C° 0 mm 4 mps 742 mmHg 99%
    10:00 -1°C° 0 mm 4 mps 742 mmHg 99%
    11:00 -1°C° 0 mm 4 mps 742 mmHg 99%
    12:00 0°C° 0 mm 4 mps 742 mmHg 99%
    13:00 0°C° 0 mm 4 mps 742 mmHg 99%
    14:00 0°C° 0 mm 4 mps 742 mmHg 99%
    15:00 0°C° 0 mm 4 mps 741 mmHg 99%
    16:00 +1°C° 0 mm 3 mps 741 mmHg 99%
    17:00 +1°C° 0 mm 3 mps 742 mmHg 99%
    18:00 +1°C° 0 mm 3 mps 742 mmHg 99%
    19:00 +2°C° 0 mm 2 mps 742 mmHg 99%
    20:00 +2°C° 0 mm 2 mps 742 mmHg 99%
    21:00 +1°C° 0 mm 2 mps 743 mmHg 99%
    22:00 +1°C° 0 mm 2 mps 743 mmHg 98%
    23:00 0°C° 0 mm 3 mps 743 mmHg 97%

    31 March, Sunday

    Time Temperature Precipitation Wind Pressure Humidity
    00:00 0°C° 0 mm 3 mps 743 mmHg 97%
    01:00 0°C° 0 mm 3 mps 743 mmHg 95%
    02:00 0°C° 0 mm 3 mps 743 mmHg 93%
    03:00 0°C° 0 mm 3 mps 744 mmHg 92%
    04:00 -1°C° 0 mm 3 mps 744 mmHg 91%
    05:00 -1°C° 0 mm 2 mps 744 mmHg 91%
    06:00 -1°C° 0 mm 2 mps 744 mmHg 91%
    07:00 +1°C° 0 mm 2 mps 744 mmHg 94%
    08:00 +1°C° 0 mm 2 mps 745 mmHg 97%
    09:00 +1°C° 0 mm 2 mps 745 mmHg 99%
    10:00 +2°C° 0 mm 2 mps 745 mmHg 99%
    11:00 +2°C° 0 mm 2 mps 745 mmHg 99%
    12:00 +1°C° 0 mm 3 mps 745 mmHg 99%
    13:00 +1°C° 0 mm 3 mps 744 mmHg 99%
    14:00 +1°C° 0 mm 3 mps 744 mmHg 99%
    15:00 0°C° 0 mm 4 mps 744 mmHg 99%
    16:00 0°C° 0 mm 4 mps 744 mmHg 99%
    17:00 0°C° 0 mm 4 mps 744 mmHg 99%
    18:00 0°C° 0 mm 4 mps 743 mmHg 99%
    19:00 0°C° 0 mm 4 mps 744 mmHg 98%
    20:00 0°C° 0 mm 4 mps 744 mmHg 98%
    21:00 0°C° 0 mm 4 mps 744 mmHg 98%
    22:00 +1°C° 0 mm 3 mps 744 mmHg 98%
    23:00 0°C° 0 mm 3 mps 744 mmHg 98%

    1 April, Monday

    Time Temperature Precipitation Wind Pressure Humidity
    00:00 0°C° 0 mm 3 mps 744 mmHg 98%
    01:00 0°C° 0 mm 3 mps 744 mmHg 94%
    02:00 0°C° 0 mm 3 mps 744 mmHg 91%
    03:00 +1°C° 0 mm 3 mps 744 mmHg 87%
    04:00 +1°C° 0 mm 3 mps 744 mmHg 86%
    05:00 +1°C° 0 mm 3 mps 743 mmHg 86%
    06:00 +1°C° 0 mm 3 mps 743 mmHg 85%
    07:00 +1°C° 0 mm 3 mps 743 mmHg 88%
    08:00 0°C° 0 mm 4 mps 743 mmHg 92%
    09:00 +1°C° 0 mm 4 mps 743 mmHg 95%
    10:00 +3°C° 0 mm 4 mps 743 mmHg 95%
    11:00 +3°C° 0 mm 4 mps 743 mmHg 95%
    12:00 +3°C° 0 mm 5 mps 743 mmHg 95%
    13:00 +5°C° 0 mm 4 mps 743 mmHg 93%
    14:00 +6°C° 0 mm 4 mps 742 mmHg 90%
    15:00 +6°C° 0 mm 4 mps 742 mmHg 88%
    16:00 +7°C° 0 mm 3 mps 742 mmHg 89%
    17:00 +5°C° 0 mm 3 mps 742 mmHg 89%
    18:00 +4°C° 0 mm 3 mps 742 mmHg 89%
    19:00 +4°C° 0 mm 3 mps 742 mmHg 88%
    20:00 +3°C° 0 mm 3 mps 742 mmHg 87%
    21:00 +3°C° 0 mm 3 mps 743 mmHg 85%
    22:00 +2°C° 0 mm 3 mps 743 mmHg 85%
    23:00 +2°C° 0 mm 3 mps 744 mmHg 85%
    Show more